Location: Drocourt
(49.0571°N, 1.7669°E)
Time: 02:01:32
(UTC+00:00)

Transit 4A - Pass Details

Date: 17 April 2024
Orbit: 871 x 971 km, 66.8° (Epoch: 19 May)

Event Time Altitude Azimuth Distance (km) Brightness Sun altitude
Rises 23:36:49 0° 311° (NW) 3,469 11.5 -29.9°
Reaches altitude 10° 23:40:31 10° 287° (WNW) 2,528 10.4 -30.0°
Enters shadow 23:42:28 14° 268° (W) 2,274 9.9 -30.0°
Maximum altitude 23:43:25 14° 257° (WSW) 2,242 - -30.0°
Drops below altitude 10° 23:46:20 10° 227° (SW) 2,534 - -30.0°
Sets 23:50:04 0° 203° (SSW) 3,483 - -30.0°
